FENGYUN 1C DEB, 31878

Orbit data source: Space-Track

FENGYUN 1C DEB, 31878 is space debris in SSO originally from a launch on Mon, 10 May 1999 UTC launched from the Taiyaun Space Center, China (TSC). Fengyun 1C debris stems from the Chinese weather satellite Fengyun-1C, which was intentionally destroyed by a Chinese anti-satellite missile in 2007. This event dramatically increased the amount of space debris, with thousands of trackable fragments posing hazards to satellites and human spaceflight. The Fengyun 1C debris cloud has become a focal point in discussions about space sustainability and the need for international regulations to prevent the creation of new debris.

Loading next visibility...
Identifier
31878, 1999-025CKD
Orbit
SSO
Country
Flag of CNCN / PRC
Related business
Manufacturer
Unknown
Mission
Spacecraft
Bus & Motor
Unknown
Mass
Unknown
Launch date (UTC)
1999-05-10 (27 years ago)
Launch vehicle
Unknown
Launch site
Taiyaun Space Center, China (TSC)
Object type
Payload
Rocket body
Debris
Shape & HBR
Unknown shape, 0.1 m
Radar Cross Section
Small (<0.1 m²)

Expand to show TLE details & history
Last TLE update: 1 week ago

TLE from 1 week ago
0 FENGYUN 1C DEB
1 31878U 99025CKD 26139.60190765  .00004974  00000-0  49589-3 0  9999
2 31878  99.4538  98.1344 0080360 101.9382 259.0854 14.89777577  4107
Epoch: 2026-05-19T14:26Z
TLE epoch observation values (Epoch: 2026-05-19T14:26:44.820Z)
Latitude
-0.00002°
Longitude
4.17419°
Altitude
612.666 km
Speed
7.547 km/s
True Right ascension
06h 32m 32s
True Declination
0° 00' 00"
Sunlit
Object was in daylight at epoch
Visualization orbit readout
Latitude
Unknown
Longitude
Unknown
Altitude
Unknown
Speed
Unknown
Apparent Right ascension
Unknown
Apparent Declination
Unknown
Sunlit
N/A
Visualization observer readout
Local Sidereal Time
23:16:43
Azimuth
Unknown
Elevation
Unknown
Doppler factor
Unknown
Orbital elements
Apogee altitude
651.776 km
Perigee altitude
539.692 km
Semi-major axis
6,973.871 km
Eccentricity
0.00804
Inclination
99.4538°
RAAN
98.1344°
Arg. of periapsis
101.9382°
True anomaly
258.18295°
Mean anomaly
259.0854°
Eccentric anomaly
258.634°
Mean motion
3.72677 °/min
Orbital period
96.6 mins
BSTAR
0.00049589
Loading maneuver chart data...
Computing Atmospheric mass density...

Documentation

Showing up to 5 results
|